Location: Caltech
(34.1382°N, 118.1253°W)
Time: 18:57:06
(UTC-07:00)

Tiros 1 despin weight - All Passes

Search period start: 27 May 2015 00:00
Search period end: 06 June 2015 00:00
Orbit: 598 x 647 km, 48.2° (Epoch: 27 May)

Date Brightness Start Highest point End Pass type
(mag) Time Alt. Az. Time Alt. Az. Time Alt. Az.
27 May - 01:32:24 10° NNW 01:34:55 15° N 01:37:31 10° NE visible
27 May - 03:13:28 10° NW 03:17:38 34° NNE 03:21:52 10° E visible
27 May - 04:55:01 10° WNW 04:59:23 43° SW 05:03:46 10° SSE visible
27 May - 20:41:14 10° SW 20:45:37 68° SE 20:50:02 10° ENE visible
27 May - 22:23:52 10° W 22:27:35 25° NNW 22:31:18 10° NNE visible
28 May - 00:08:14 10° NNW 00:10:27 13° N 00:12:42 10° NNE visible
28 May - 01:50:19 10° NNW 01:53:30 19° NNE 01:56:46 10° ENE visible
28 May - 03:31:20 10° NW 03:35:51 63° NE 03:40:25 10° ESE visible
28 May - 05:13:50 10° W 05:17:15 20° SW 05:20:34 10° S visible
28 May - 19:19:02 10° S 19:22:17 21° SE 19:25:38 10° E daylight
28 May - 20:59:18 10° WSW 21:03:40 58° NW 21:08:03 10° NE visible
28 May - 22:43:01 10° WNW 22:46:03 18° NNW 22:49:05 10° NNE visible
29 May - 00:26:50 10° NNW 00:29:06 14° N 00:31:25 10° NE visible
29 May - 02:08:06 10° NW 02:11:58 27° NNE 02:15:53 10° E visible
29 May - 03:49:23 10° WNW 03:53:53 64° SW 03:58:27 10° SE visible
29 May - 19:35:56 10° SSW 19:40:08 46° SE 19:44:24 10° ENE daylight
29 May - 21:17:55 10° W 21:21:54 32° NNW 21:25:54 10° NE visible
29 May - 23:02:14 10° NW 23:04:38 14° N 23:07:02 10° NNE visible
30 May - 00:44:54 10° NNW 00:47:43 16° NNE 00:50:35 10° NE visible
30 May - 02:25:53 10° NW 02:30:15 46° NNE 02:34:40 10° ESE visible
30 May - 04:07:49 10° WNW 04:11:47 29° SW 04:15:45 10° SSE visible
30 May - 18:14:43 10° SSE 18:16:52 14° SE 18:19:14 10° E daylight
30 May - 19:53:41 10° SW 19:58:07 82° NW 20:02:34 10° NE daylight
30 May - 21:36:55 10° WNW 21:40:18 21° NNW 21:43:39 10° NNE visible
30 May - 23:21:09 10° NNW 23:23:17 13° N 23:25:26 10° NNE visible
31 May - 01:02:43 10° NNW 01:06:14 22° NNE 01:09:49 10° ENE visible
31 May - 02:43:49 10° NW 02:48:22 89° NE 02:52:58 10° SE visible
31 May - 04:27:24 10° W 04:29:37 13° SW 04:31:39 10° SSW night (unlit)
31 May - 18:30:49 10° SSW 18:34:42 31° SE 18:38:38 10° ENE daylight
31 May - 20:12:03 10° WSW 20:16:15 41° NNW 20:20:29 10° NE daylight
31 May - 21:56:09 10° NW 21:58:50 15° NNW 22:01:29 10° NNE visible
31 May - 23:39:26 10° NNW 23:41:54 14° N 23:44:26 10° NE visible
01 Jun - 01:20:29 10° NW 01:24:36 34° NNE 01:28:47 10° E visible
01 Jun - 03:02:02 10° WNW 03:06:20 42° SW 03:10:39 10° SSE night (unlit)
01 Jun - 18:48:12 10° SW 18:52:36 69° SE 18:57:01 10° ENE daylight
01 Jun - 20:30:53 10° W 20:34:34 25° NNW 20:38:15 10° NNE visible
01 Jun - 22:15:17 10° NNW 22:17:27 13° N 22:19:37 10° NNE visible
01 Jun - 23:57:21 10° NNW 00:00:29 18° NNE 00:03:41 10° ENE visible
02 Jun - 01:38:20 10° NW 01:42:48 64° NE 01:47:20 10° ESE visible
02 Jun - 03:20:52 10° W 03:24:11 19° SW 03:27:24 10° S night (unlit)
02 Jun - 17:25:58 10° S 17:29:16 21° SE 17:32:39 10° E daylight
02 Jun - 19:06:18 10° WSW 19:10:39 57° NW 19:15:01 10° NE daylight
02 Jun - 20:50:02 10° WNW 20:53:03 17° NNW 20:56:01 10° NNE visible
02 Jun - 22:33:53 10° NNW 22:36:05 13° N 22:38:20 10° NE visible
03 Jun - 00:15:06 10° NW 00:18:55 27° NNE 00:22:48 10° E visible
03 Jun - 01:56:23 10° WNW 02:00:50 62° SW 02:05:20 10° SE visible
03 Jun - 17:42:52 10° SSW 17:47:07 46° SE 17:51:23 10° ENE daylight
03 Jun - 19:24:54 10° W 19:28:53 31° NNW 19:32:51 10° NE daylight
03 Jun - 21:09:16 10° NW 21:11:37 14° N 21:13:57 10° NNE visible
03 Jun - 22:51:55 10° NNW 22:54:41 16° NNE 22:57:31 10° NE visible
04 Jun - 00:32:53 10° NW 00:37:12 46° NNE 00:41:35 10° ESE visible
04 Jun - 02:14:50 10° WNW 02:18:44 28° SW 02:22:36 10° SSE night (unlit)
04 Jun - 16:21:35 10° SSE 16:23:50 14° SE 16:26:16 10° E daylight
04 Jun - 18:00:39 10° SW 18:05:06 81° NW 18:09:32 10° NE daylight
04 Jun - 19:43:55 10° WNW 19:47:17 20° NNW 19:50:36 10° NNE daylight
04 Jun - 21:28:10 10° NNW 21:30:15 13° N 21:32:21 10° NNE visible
04 Jun - 23:09:43 10° NNW 23:13:11 22° NNE 23:16:44 10° ENE visible
05 Jun - 00:50:49 10° NW 00:55:18 89° SW 00:59:51 10° SE visible
05 Jun - 02:34:29 10° WSW 02:36:33 13° SW 02:38:24 10° SSW night (unlit)
05 Jun - 16:37:44 10° SSW 16:41:39 31° SE 16:45:37 10° ENE daylight
05 Jun - 18:19:01 10° WSW 18:23:14 41° NNW 18:27:26 10° NE daylight
05 Jun - 20:03:09 10° NW 20:05:48 15° NNW 20:08:25 10° NNE daylight
05 Jun - 21:46:27 10° NNW 21:48:53 14° N 21:51:21 10° NE visible
05 Jun - 23:27:28 10° NW 23:31:33 34° NNE 23:35:42 10° E visible
